Regional Weather Roundup
Issued by NWS

Home | Current Version | Previous Version | Graphics & Text | Print | Product List | Glossary On
Versions: 1 2 3 4 5 6 7 8 9 10 11 12 13 14 15 16 17 18 19 20 21 22 23 24 25 26 27 28 29 30 31 32 33 34 35 36 37 38 39 40 41 42 43 44 45 46 47 48 49 50
000
ASUS43 KTOP 240308
RWRKS

WEATHER ROUNDUP FOR KANSAS
NATIONAL WEATHER SERVICE GOODLAND KS
1000 PM CDT SAT SEP 23 2017

NOTE:  "FAIR" INDICATES FEW OR NO CLOUDS BELOW 12,000 FEET WITH NO
SIGNIFICANT WEATHER AND/OR OBSTRUCTIONS TO VISIBILITY.

KSZ001>006-013>018-027>032-041>047-240400-
NORTHWEST KANSAS

CITY           SKY/WX    TMP DP  RH WIND       PRES   REMARKS
GOODLAND       RAIN      58  58 100 E14       29.88F FOG
HAYS           CLEAR     78  59  51 S16       29.85R
HILL CITY      MOCLDY    79  59  50 S15       29.84S
RUSSELL        CLEAR     78  58  49 SE17      29.85S
$$

KSZ061>065-074>080-084>089-240400-
SOUTHWEST KANSAS

CITY           SKY/WX    TMP DP  RH WIND       PRES   REMARKS
DODGE CITY     CLOUDY    77  57  50 SE20      29.88R
ELKHART          N/A     62  63 100 E12         N/A
GARDEN CITY    LGT RAIN  66  61  84 W12       29.89R
GREAT BEND     CLEAR     78  61  55 SE15      29.87F
LIBERAL        LGT RAIN  70  63  78 W10       29.89R
PRATT          CLEAR     78  59  52 S13G21    29.89S
$$

KSZ066>073-081>083-090>101-240400-
SOUTHEAST KANSAS

CITY           SKY/WX    TMP DP  RH WIND       PRES   REMARKS
CHANUTE        CLEAR     74  66  76 E5        29.95S
COFFEYVILLE    CLEAR     72  68  87 CALM      29.93S
HUTCHINSON     CLEAR     77  63  61 SE12      29.90S
MEDICINE LODGE   N/A     79  60  52 SE8       29.88S
NEWTON         CLEAR     73  62  68 SE10      29.93F
PARSONS        CLEAR     71  66  84 CALM      29.95S
WICHITA INTL   CLEAR     78  64  61 SE13      29.91F
WICHITA JABRA  CLEAR     75  64  68 SE9       29.92F
WICHITA MCCONL CLEAR     78  62  59 S10       29.92F
WINFIELD       CLEAR     77  66  68 SE8       29.93F
$$

KSZ007>012-019>026-033>040-048>060-102>105-240400-
NORTHEAST KANSAS

CITY           SKY/WX    TMP DP  RH WIND       PRES   REMARKS
CONCORDIA      PTCLDY    79  62  56 S16       29.89S
EMPORIA        CLEAR     75  64  68 SE10      29.94F
LAWRENCE       CLEAR     71  68  90 SE5       29.95R
MANHATTAN      PTCLDY    77  64  64 S8        29.91F
MARYSVILLE     CLOUDY    79  63  57 SE9       29.92S
OLATHE IND     CLEAR     76  68  76 SE6       29.97S
OLATHE EXE     CLEAR     74  69  85 SE5       29.97S
SALINA         CLEAR     82  61  48 SE17      29.88F
TOPEKA BILLARD CLEAR     72  67  84 E5        29.94S
TOPEKA FORBES  CLEAR     73  66  78 SE6       29.95S
$$



USA.gov is the U.S. government's official web portal to all federal, state and local government web resources and services.